Volver al catálogo

OPS 4412

TRANSIT 9

ActivoNavegaciónPO
NORAD 801·PAYLOAD·🇺🇸 United States

Lanzado Jun 4, 1964 desde Vandenberg Space Force Base

Loading…

Próximos Pases (próximas 24 horas)

TLE

ActualizadoSource: Space-Track

Época: Sep 14, 2026, 06:25 UTC

1 00801U 64026A   26257.26800014  .00000335  00000-0  15933-3 0  9995
2 00801  90.4616 192.5903 0049551  94.8669 265.8180 14.17135686198765

Sigue OPS 4412 en tiempo real con AllMySat

Download on the App Store